Location: Izdebno
(52.6670°N, 16.2170°E)
Time: 19:08:16
(UTC+01:00)

Transit 2A - Pass Details

Date: 07 February 2023
Orbit: 591 x 964 km, 66.7° (Epoch: 21 March)

Event Time Altitude Azimuth Distance (km) Brightness Sun altitude
Rises 02:03:48 0° 314° (NW) 3,515 - -46.4°
Reaches altitude 10° 02:06:45 10° 300° (WNW) 2,619 - -46.1°
Maximum altitude 02:11:23 23° 252° (WSW) 1,912 - -45.7°
Drops below altitude 10° 02:16:07 10° 203° (SSW) 2,693 - -45.1°
Sets 02:19:13 0° 189° (S) 3,638 - -44.8°
